Regional Weather Roundup
Issued by NWS Raleigh/Durham, NC

Home | Current Version | Previous Version | Text Only | Print | Product List | Glossary On
Versions: 1 2 3 4 5 6 7 8 9 10 11 12 13 14 15 16 17 18 19 20 21 22 23 24 25 26 27 28 29 30 31 32 33 34 35 36 37 38 39 40 41 42 43 44 45 46 47 48 49 50
000
ASUS42 KRAH 011910
RWRRAH
NORTH CAROLINA WEATHER ROUNDUP
NATIONAL WEATHER SERVICE RALEIGH NC
300 PM EDT WED JUL 01 2015

NOTE: "FAIR" INDICATES FEW OR NO CLOUDS BELOW 12,000 FEET WITH NO
SIGNIFICANT WEATHER AND/OR OBSTRUCTIONS TO VISIBILITY.

NCZ001-053-055-056-065-067-012000-
WESTERN NORTH CAROLINA

CITY           SKY/WX    TMP DP  RH WIND       PRES   REMARKS
ASHEVILLE      CLOUDY    79  62  56 SW5       30.05F
JEFFERSON      PTSUNNY   76  54  46 W14       30.07F
MORGANTON      MOSUNNY   85  62  45 S8        30.02S
HICKORY        MOSUNNY   85  61  44 SW12      29.97F
RUTHERFORDTON  CLOUDY    83  65  54 SW7       29.99F
MOUNT AIRY     PTSUNNY   85  65  50 W5        29.98F
BOONE          MOSUNNY   76  57  52 NW9       30.09S
$$

NCZ021-022-025-041-071-084-088-012000-
CENTRAL NORTH CAROLINA

CITY           SKY/WX    TMP DP  RH WIND       PRES   REMARKS
CHARLOTTE      MOSUNNY   87  64  46 S7        29.97F
GREENSBORO     PTSUNNY   85  61  44 SW7G17    29.95F
WINSTON-SALEM  MOSUNNY   86  61  42 SW8       29.96F
RALEIGH-DURHAM PTSUNNY   86  69  56 SW8       29.95F
FORT BRAGG     MOSUNNY   83  70  64 VRB5      29.95S
FAYETTEVILLE   PTSUNNY   82  71  69 S8        29.96F
BURLINGTON     SUNNY     87  64  46 SW9       29.94F
LAURINBURG     MOSUNNY   83  70  64 SW8       29.98F HAZE
$$

NCZ011-015-027-028-043-044-047-080-103-012000-
NORTHEASTERN NORTH CAROLINA

CITY           SKY/WX    TMP DP  RH WIND       PRES   REMARKS
ROCKY MT-WILSO MOSUNNY   88  66  48 VRB5      29.92F
GREENVILLE     SUNNY     88  66  48 W9        29.96S
WASHINGTON     SUNNY     86  69  55 W7        29.95R
ELIZABETH CITY SUNNY     85  67  54 W7        29.92S
MANTEO         SUNNY     86  65  48 W9        29.93S
CAPE HATTERAS  SUNNY     82  74  76 SW14G23   29.96S
$$

NCZ078-087-090-091-093-098-101-012000-
SOUTHEASTERN NORTH CAROLINA

CITY           SKY/WX    TMP DP  RH WIND       PRES   REMARKS
LUMBERTON      MOSUNNY   82  71  69 S9        29.96F
GOLDSBORO      MOSUNNY   85  70  61 S8        29.93F
KINSTON        MOSUNNY   86  68  54 S6        29.96F
KENANSVILLE    PTSUNNY   80  69  67 SW6       29.99R
NEW BERN       MOSUNNY   87  72  60 SW9       29.96S
CHERRY POINT   PTSUNNY   87  71  58 SW10      29.95F
BEAUFORT       SUNNY     83  75  77 SW16      29.95F
JACKSONVILLE   MOSUNNY   85  71  63 SW9       29.96S
WILMINGTON     MOSUNNY   87  71  58 W8G17     29.97S
$$




USA.gov is the U.S. government's official web portal to all federal, state and local government web resources and services.